Theta_e
308 308 308 308 308 308 307 307 307 306 306 306 306 306 305 305 304 303 302 301 299 297 296 295 295 295 295 295 295 295 295 295 295 295 295 295 295 295 295 295 295 295
308 308 308 307 308 308 308 308 307 307 307 306 306 305 305 304 303 303 302 301 300 298 297 295 295 294 295 294 295 295 295 295 295 295 295 295 295 295 295 295 295 295
310 309 309 309 309 309 308 308 307 307 307 306 306 305 305 304 303 302 302 301 300 299 297 296 295 294 294 294 294 294 294 295 295 295 295 295 295 295 295 295 295 295
311 311 310 310 309 308 308 307 307 307 307 306 306 305 304 303 303 302 301 300 300 299 297 296 295 294 294 294 294 294 294 294 294 294 295 294 294 294 294 294 294 294
311 311 311 310 309 308 307 307 308 307 307 307 306 305 304 303 302 301 301 300 299 299 298 296 295 294 293 293 293 293 293 293 294 294 294 294 294 294 294 294 294 294
312 311 311 310 309 308 308 308 308 307 307 306 306 305 304 303 302 302 300 299 299 298 298 296 295 294 293 293 293 293 293 293 293 294 294 294 294 294 294 294 294 294
312 312 311 310 308 307 308 308 307 307 307 306 305 305 304 303 303 302 300 299 298 298 298 297 295 294 293 293 292 292 292 293 293 293 294 294 294 294 294 294 294 294
310 311 310 309 308 307 307 307 307 307 307 306 305 305 305 304 303 302 301 299 298 297 297 297 296 294 293 293 292 292 292 292 292 293 293 293 293 293 294 294 294 294
309 309 309 308 308 307 307 307 307 307 307 306 306 305 304 304 303 302 301 299 298 297 297 296 296 295 294 293 292 292 292 292 292 293 293 293 293 293 293 293 293 293
308 308 308 308 308 308 307 307 307 307 307 306 306 305 304 304 303 302 300 299 298 297 297 296 296 295 294 293 293 292 292 292 292 292 292 293 293 293 293 293 293 293
308 308 308 307 307 307 308 307 307 306 306 306 305 305 305 304 303 302 300 299 298 298 297 296 296 295 294 293 293 292 292 291 292 292 292 292 292 292 292 292 292 292
308 308 308 307 307 307 307 306 306 306 305 305 305 305 304 303 303 302 301 300 299 298 297 296 296 295 294 294 293 292 292 291 291 291 291 291 292 292 292 292 292 292
307 308 308 307 307 307 306 305 305 305 305 305 304 304 303 302 302 301 301 301 300 299 298 297 296 295 294 293 293 292 292 291 291 291 291 291 291 291 291 291 291 291
308 308 308 307 306 305 305 304 304 304 305 305 304 302 302 301 301 300 300 299 299 298 298 297 296 295 294 293 293 292 292 291 291 291 290 290 290 290 290 290 291 290
308 307 307 306 304 304 304 303 303 304 305 304 304 303 301 300 299 298 298 298 297 296 296 295 295 294 294 293 293 292 291 291 290 290 290 290 290 290 290 290 290 290
306 305 305 304 303 303 304 303 302 303 304 304 304 302 300 299 298 297 297 296 296 295 295 294 294 294 294 293 293 292 292 291 290 290 290 290 290 289 290 290 290 290
305 304 303 303 303 302 302 302 302 302 302 303 302 301 300 298 297 297 296 295 295 295 295 294 294 294 293 293 292 292 291 290 290 290 289 289 289 289 289 289 289 289
304 304 303 302 302 302 301 301 301 300 301 301 301 301 300 298 297 296 296 295 295 294 294 294 294 294 293 293 292 292 291 290 289 289 289 289 289 289 289 289 289 289
302 302 302 302 302 301 301 300 299 300 300 300 300 300 299 298 297 296 295 295 294 294 294 293 293 293 293 292 292 291 290 290 289 288 289 288 288 288 288 288 288 288
300 301 301 301 301 300 299 298 298 299 299 299 299 298 298 297 297 296 295 294 294 293 293 293 292 292 292 292 291 291 290 289 288 288 288 288 287 288 288 288 288 287
298 298 298 298 298 298 298 298 297 297 298 298 297 297 297 297 296 295 294 294 293 292 292 292 292 292 291 291 291 290 289 289 288 287 287 287 287 287 287 287 287 286
297 296 296 296 296 296 296 296 296 296 296 296 296 295 295 294 294 294 293 293 292 292 291 291 291 291 290 290 290 289 289 288 287 287 286 286 286 286 286 286 286 286
298 297 296 295 294 294 295 295 295 295 295 294 294 294 294 293 293 293 292 292 292 291 291 291 291 290 290 290 289 289 288 288 287 286 286 286 286 286 286 286 285 285
298 298 297 296 294 293 293 293 293 293 293 293 293 293 293 293 292 292 291 291 291 291 291 291 291 290 290 290 289 288 288 287 286 286 286 285 286 286 285 285 285 285
298 298 298 297 296 295 293 292 292 292 292 292 292 292 292 292 291 291 291 291 290 290 290 290 290 290 289 289 288 288 287 287 286 285 285 285 285 285 285 285 285 285
298 298 298 297 297 296 294 293 292 291 291 291 291 290 290 290 290 290 290 290 290 289 289 289 289 289 289 288 287 287 286 286 285 285 285 285 285 285 285 285 285 285
Wind_Speed
38 39 40 40 41 42 42 43 43 44 43 43 43 43 44 44 45 45 46 47 48 48 47 47 46 45 44 43 42 40 39 37 35 33 32 30 28 26 25 24 24 24
39 40 41 42 42 42 43 43 43 43 43 43 43 43 43 44 44 44 45 46 47 48 48 48 47 46 45 44 44 42 40 38 37 35 34 31 29 28 26 25 25 24
39 41 42 43 43 43 43 44 44 44 44 44 43 44 44 44 44 44 44 45 47 47 48 48 48 47 46 46 45 43 42 40 38 37 35 33 31 29 27 26 25 25
41 43 44 44 44 45 45 46 46 45 45 45 45 45 45 45 45 44 44 45 46 47 48 49 49 48 48 47 46 44 43 41 39 37 35 34 32 30 29 27 26 25
44 45 46 46 46 47 48 48 47 46 46 46 46 46 47 46 46 45 44 45 45 47 49 49 50 49 49 48 47 46 44 42 40 38 37 35 33 31 30 28 27 26
46 48 48 48 48 49 50 50 49 48 48 47 47 48 48 47 47 46 45 44 45 46 48 49 50 50 50 49 48 47 45 43 42 40 39 37 35 33 31 29 28 28
46 49 51 51 52 52 52 51 50 50 49 48 49 49 48 48 48 47 46 45 44 45 47 48 50 50 50 50 49 48 46 45 43 42 40 38 36 34 32 31 30 29
45 47 51 54 55 55 55 54 53 51 50 50 51 50 49 49 49 48 47 45 45 45 45 47 48 50 50 50 50 49 48 46 45 43 41 39 37 35 33 32 31 29
48 46 49 53 55 57 57 55 54 52 52 52 52 52 51 51 50 49 48 47 45 45 45 46 47 49 50 50 50 50 49 48 46 44 43 41 39 37 35 33 31 30
52 48 48 50 52 55 58 58 56 54 54 54 54 54 53 52 51 51 50 49 47 46 45 46 47 49 51 51 51 51 50 49 47 45 44 42 40 38 35 34 32 31
51 50 48 48 48 50 54 57 57 56 57 56 56 56 55 54 53 53 52 51 49 48 46 47 48 49 51 51 51 51 51 49 48 46 45 43 41 39 36 34 32 31
46 49 49 47 45 47 50 54 57 57 57 58 58 58 58 57 56 56 55 53 51 50 48 48 48 49 50 51 51 51 51 50 48 47 45 43 41 39 37 35 33 31
43 47 49 47 46 47 49 52 55 57 57 58 58 59 59 59 58 58 56 55 53 52 50 49 48 49 50 51 51 51 50 51 50 48 46 44 42 39 37 35 33 31
43 44 47 48 47 47 49 51 53 55 56 56 58 58 59 59 59 58 57 55 54 53 52 51 50 50 51 51 52 51 51 52 51 50 48 45 43 40 38 36 34 32
44 43 45 47 48 48 49 51 52 53 55 55 57 57 57 57 57 57 56 56 55 54 53 52 51 51 51 51 52 52 52 53 52 50 48 46 44 41 39 37 34 32
44 43 44 46 47 47 48 50 51 53 54 55 56 55 55 55 55 56 56 56 56 55 54 54 53 52 52 51 51 51 52 53 52 50 48 46 44 42 39 37 34 33
42 42 43 45 46 46 46 49 51 53 54 54 54 54 54 54 54 55 56 55 55 55 54 55 54 53 52 51 51 52 52 52 52 51 49 47 44 42 39 37 35 33
40 41 42 43 45 45 46 48 50 53 54 54 54 53 53 53 54 55 55 54 54 55 55 55 54 54 53 52 52 53 52 52 52 50 49 47 45 42 39 36 35 33
37 38 40 41 43 45 46 47 49 52 53 53 52 52 52 53 54 54 54 54 54 54 55 55 54 54 53 52 53 53 52 52 51 50 49 47 44 41 39 37 35 34
33 35 37 39 42 44 45 47 48 50 51 51 51 51 52 53 53 53 53 53 53 54 54 54 54 54 53 52 52 53 53 52 51 50 48 45 42 40 38 37 36 35
29 31 32 35 38 41 43 45 47 48 49 50 50 51 52 52 52 53 53 52 53 53 53 53 54 53 52 52 52 53 53 52 51 49 47 44 42 40 38 37 36 35
25 26 28 31 33 37 40 43 45 47 48 49 49 50 50 51 52 52 51 51 51 52 52 53 54 53 52 51 52 53 53 52 51 49 47 45 43 41 39 38 37 35
27 25 24 26 29 33 37 40 43 45 47 48 48 49 49 50 51 50 50 50 51 51 52 52 53 52 51 51 52 54 54 53 51 49 47 45 43 41 40 38 37 35
30 28 25 23 24 29 32 36 39 42 45 46 46 48 48 48 49 49 49 50 50 51 50 51 52 51 51 52 53 53 53 53 51 50 48 46 43 42 40 38 37 35
29 29 27 24 23 23 26 31 35 39 42 43 44 45 46 46 47 48 49 49 49 50 49 50 51 50 50 52 52 52 53 53 51 50 49 46 44 43 41 39 37 35
27 27 27 27 25 23 23 25 30 34 38 40 42 43 44 45 45 46 47 48 48 49 49 49 50 49 50 51 51 51 53 53 51 50 49 48 45 43 41 39 37 35
Wind_Direction
238 238 238 239 240 241 242 243 244 244 245 245 245 245 244 243 241 239 237 236 236 236 235 235 234 234 234 234 234 235 235 235 235 237 239 242 245 248 251 256 260 264
239 239 239 239 240 241 241 243 244 245 246 246 247 247 247 246 244 241 239 238 237 237 236 235 234 234 234 234 234 234 234 233 233 235 237 240 243 245 248 252 255 260
240 240 240 239 239 239 241 242 244 245 246 247 247 247 247 246 245 243 241 240 239 238 237 236 235 234 234 234 234 235 234 234 234 235 237 239 241 243 245 248 251 256
239 240 240 240 240 241 243 243 244 245 246 246 246 246 247 246 245 243 241 240 239 239 238 237 235 234 234 233 233 234 234 234 234 235 236 237 238 240 242 245 249 253
240 241 242 242 242 243 243 244 244 245 246 246 246 247 247 247 246 243 241 240 239 239 238 237 235 234 233 233 232 232 232 232 232 233 233 235 236 238 240 243 247 251
243 243 243 243 244 244 244 244 244 245 246 247 247 247 248 247 247 245 242 240 239 239 238 237 235 234 233 232 231 231 231 231 231 232 232 234 235 237 239 242 246 249
249 247 245 245 244 244 245 245 246 247 247 247 248 248 248 248 248 247 244 241 240 239 239 238 236 234 233 232 231 231 231 231 231 231 232 234 234 236 238 240 244 247
254 253 250 249 247 246 246 245 246 246 247 247 248 248 248 248 248 248 246 243 240 239 239 238 237 236 234 233 232 231 231 230 230 231 232 233 233 235 237 240 243 246
254 254 254 253 252 250 249 248 247 247 247 248 248 248 248 248 248 248 247 244 240 239 238 238 237 236 235 234 233 233 232 231 231 231 232 233 233 235 237 239 242 244
255 254 256 256 256 256 254 251 250 248 248 248 248 248 248 248 248 248 246 244 241 238 237 236 236 235 234 234 234 234 233 233 232 232 233 233 234 236 237 239 241 244
259 256 257 259 260 262 260 256 252 250 249 249 249 249 248 248 248 247 245 244 242 239 237 235 235 235 234 234 234 233 233 233 233 233 233 234 234 235 236 237 239 243
263 258 258 261 266 268 265 259 254 251 250 250 250 249 249 247 246 246 245 245 244 242 239 236 235 234 234 234 233 233 232 232 232 232 233 233 234 234 234 236 238 241
274 267 261 263 269 271 267 260 254 252 251 251 251 250 249 248 246 246 246 246 245 244 241 238 235 234 234 233 233 232 232 231 231 230 231 231 232 233 233 235 237 240
287 280 270 266 268 269 266 261 255 252 252 252 251 250 249 249 248 247 246 245 244 243 242 239 236 234 233 232 232 231 231 231 230 230 230 230 231 232 233 234 236 239
291 285 276 268 266 266 266 262 257 253 252 252 251 251 250 250 249 247 246 244 242 241 239 238 236 234 233 232 232 231 230 230 229 229 230 230 231 231 232 234 236 239
291 285 278 271 268 268 266 263 258 252 250 251 251 251 250 248 247 246 244 243 242 240 238 237 236 235 234 233 232 232 232 231 229 229 229 230 231 231 232 233 236 239
290 287 282 276 273 270 267 264 259 253 250 250 250 250 249 248 247 245 243 242 241 240 239 238 237 235 234 233 232 233 233 232 231 230 230 230 231 231 232 234 235 238
290 288 285 281 277 273 269 265 259 253 250 249 249 250 249 248 246 245 243 242 240 239 239 238 237 236 234 232 231 232 232 232 231 231 230 230 230 230 232 233 235 237
293 290 288 285 281 277 272 265 259 254 251 250 250 250 250 248 247 245 243 241 240 239 238 237 236 235 233 232 231 232 231 231 230 230 231 231 230 231 232 233 234 236
298 294 291 288 282 277 272 266 261 256 253 251 251 250 250 248 246 245 242 241 239 238 237 236 235 234 232 231 232 232 231 230 229 229 229 229 229 230 232 233 233 234
303 298 293 288 282 276 271 267 262 258 254 252 252 251 251 249 246 244 242 240 239 237 236 235 235 233 231 231 231 231 230 229 228 228 227 227 227 228 230 231 231 232
323 308 297 289 282 276 271 267 262 258 255 254 252 251 249 247 245 244 242 240 239 236 235 234 234 232 230 230 230 230 230 228 227 226 225 225 226 227 227 228 229 230
345 332 316 300 286 277 272 268 264 260 257 254 252 250 248 246 245 243 242 241 239 237 236 234 234 232 230 229 230 229 230 228 225 224 224 224 225 226 226 227 228 229
348 343 335 319 299 286 278 272 268 263 259 256 253 251 249 248 246 244 243 242 240 239 238 236 235 232 229 229 229 229 230 228 225 223 223 223 224 224 225 226 227 229
342 342 339 333 321 307 292 281 274 267 262 258 254 252 250 248 246 245 244 243 241 240 239 237 236 233 230 229 228 228 230 228 224 222 222 222 223 223 224 225 226 227
332 334 335 335 333 325 309 292 279 271 264 259 255 252 250 248 246 245 244 244 242 241 239 238 237 234 231 229 228 228 230 228 224 223 223 223 223 224 224 224 224 225